Time,TemperatureF,DewpointF,PressureIn,WindDirection,WindDirectionDegrees,WindSpeedMPH,WindSpeedGustMPH,Humidity,HourlyPrecipIn,Conditions,Clouds,dailyrainin,SoftwareType,DateUTC
2013-06-05 00:02:00,50.0,42.0,-100.00,North,356,2.0,4.0,75,-99.99,,,-99.99,,2013-06-05 07:02:00,
2013-06-05 00:12:00,50.0,42.0,-100.00,North,359,2.0,5.0,75,-99.99,,,-99.99,,2013-06-05 07:12:00,
2013-06-05 00:22:00,49.0,41.0,-100.00,North,350,1.0,2.0,75,-99.99,,,-99.99,,2013-06-05 07:22:00,
2013-06-05 00:32:00,49.0,41.0,-100.00,ESE,109,1.0,3.0,74,-99.99,,,-99.99,,2013-06-05 07:32:00,
2013-06-05 00:42:00,46.0,39.0,-100.00,WSW,255,1.0,1.0,77,-99.99,,,-99.99,,2013-06-05 07:42:00,
2013-06-05 00:52:00,45.0,40.0,-100.00,North,355,1.0,2.0,83,-99.99,,,-99.99,,2013-06-05 07:52:00,
2013-06-05 01:02:00,46.0,40.0,-100.00,NNW,343,1.0,2.0,80,-99.99,,,-99.99,,2013-06-05 08:02:00,
2013-06-05 01:12:00,47.0,40.0,-100.00,NNW,348,3.0,4.0,76,-99.99,,,-99.99,,2013-06-05 08:12:00,
2013-06-05 01:22:00,46.0,39.0,-100.00,NNW,341,3.0,5.0,75,-99.99,,,-99.99,,2013-06-05 08:22:00,
2013-06-05 01:32:00,47.0,39.0,-100.00,North,354,2.0,4.0,73,-99.99,,,-99.99,,2013-06-05 08:32:00,
2013-06-05 01:42:00,45.0,37.0,-100.00,North,11,1.0,2.0,74,-99.99,,,-99.99,,2013-06-05 08:42:00,
2013-06-05 01:52:00,44.0,38.0,-100.00,NE,56,1.0,1.0,78,-99.99,,,-99.99,,2013-06-05 08:52:00,
2013-06-05 02:02:00,44.0,38.0,-100.00,North,351,2.0,3.0,80,-99.99,,,-99.99,,2013-06-05 09:02:00,
2013-06-05 02:12:00,45.0,37.0,-100.00,North,359,3.0,4.0,74,-99.99,,,-99.99,,2013-06-05 09:12:00,
2013-06-05 02:22:00,45.0,36.0,-100.00,North,357,3.0,5.0,71,-99.99,,,-99.99,,2013-06-05 09:22:00,
2013-06-05 02:32:00,44.0,37.0,-100.00,NNW,341,2.0,3.0,75,-99.99,,,-99.99,,2013-06-05 09:32:00,
2013-06-05 02:42:00,44.0,36.0,-100.00,NNE,13,1.0,3.0,73,-99.99,,,-99.99,,2013-06-05 09:42:00,
2013-06-05 02:52:00,43.0,36.0,-100.00,North,352,1.0,2.0,75,-99.99,,,-99.99,,2013-06-05 09:52:00,
2013-06-05 03:02:00,43.0,35.0,-100.00,NW,324,2.0,3.0,73,-99.99,,,-99.99,,2013-06-05 10:02:00,
2013-06-05 03:12:00,42.0,33.0,-100.00,NW,326,1.0,2.0,70,-99.99,,,-99.99,,2013-06-05 10:12:00,
2013-06-05 03:22:00,42.0,33.0,-100.00,North,3,2.0,4.0,71,-99.99,,,-99.99,,2013-06-05 10:22:00,
2013-06-05 03:33:00,41.0,33.0,-100.00,NNW,342,1.0,4.0,73,-99.99,,,-99.99,,2013-06-05 10:33:00,
2013-06-05 03:42:00,40.0,32.0,-100.00,North,5,2.0,4.0,74,-99.99,,,-99.99,,2013-06-05 10:42:00,
2013-06-05 03:52:00,42.0,33.0,-100.00,North,359,3.0,6.0,69,-99.99,,,-99.99,,2013-06-05 10:52:00,
2013-06-05 04:02:00,42.0,31.0,-100.00,NNW,348,3.0,4.0,65,-99.99,,,-99.99,,2013-06-05 11:02:00,
2013-06-05 04:12:00,41.0,31.0,-100.00,NNW,341,2.0,4.0,66,-99.99,,,-99.99,,2013-06-05 11:12:00,
2013-06-05 04:21:00,38.0,30.0,-100.00,North,355,1.0,3.0,74,-99.99,,,-99.99,,2013-06-05 11:21:00,
2013-06-05 04:32:00,40.0,32.0,-100.00,NNW,345,2.0,4.0,73,-99.99,,,-99.99,,2013-06-05 11:32:00,
2013-06-05 04:42:00,40.0,30.0,-100.00,NNE,27,2.0,5.0,67,-99.99,,,-99.99,,2013-06-05 11:42:00,
2013-06-05 04:52:00,41.0,30.0,-100.00,NNW,329,2.0,4.0,65,-99.99,,,-99.99,,2013-06-05 11:52:00,
2013-06-05 05:01:00,41.0,29.0,-100.00,North,351,1.0,3.0,62,-99.99,,,-99.99,,2013-06-05 12:01:00,
2013-06-05 05:12:00,40.0,29.0,-100.00,NNW,333,1.0,2.0,64,-99.99,,,-99.99,,2013-06-05 12:12:00,
2013-06-05 05:22:00,40.0,28.0,-100.00,North,354,2.0,3.0,63,-99.99,,,-99.99,,2013-06-05 12:22:00,
2013-06-05 05:32:00,41.0,27.0,-100.00,North,354,3.0,5.0,58,-99.99,,,-99.99,,2013-06-05 12:32:00,
2013-06-05 05:43:00,42.0,27.0,-100.00,NNW,344,2.0,4.0,55,-99.99,,,-99.99,,2013-06-05 12:43:00,
2013-06-05 05:52:00,41.0,27.0,-100.00,North,350,1.0,1.0,57,-99.99,,,-99.99,,2013-06-05 12:52:00,
2013-06-05 06:02:00,41.0,27.0,-100.00,NNW,335,1.0,2.0,57,-99.99,,,-99.99,,2013-06-05 13:02:00,
2013-06-05 06:12:00,41.0,27.0,-100.00,NNW,344,2.0,4.0,56,-99.99,,,-99.99,,2013-06-05 13:12:00,
2013-06-05 06:21:00,40.0,26.0,-100.00,North,3,3.0,4.0,58,-99.99,,,-99.99,,2013-06-05 13:21:00,
2013-06-05 06:32:00,41.0,27.0,-100.00,NNW,342,2.0,3.0,57,-99.99,,,-99.99,,2013-06-05 13:32:00,
2013-06-05 06:42:00,42.0,27.0,-100.00,NW,308,1.0,3.0,54,-99.99,,,-99.99,,2013-06-05 13:42:00,
2013-06-05 06:52:00,44.0,27.0,-100.00,WNW,285,1.0,1.0,51,-99.99,,,-99.99,,2013-06-05 13:52:00,
2013-06-05 07:01:00,46.0,29.0,-100.00,NE,39,1.0,2.0,51,-99.99,,,-99.99,,2013-06-05 14:01:00,
2013-06-05 07:12:00,46.0,29.0,-100.00,North,5,1.0,2.0,52,-99.99,,,-99.99,,2013-06-05 14:12:00,
2013-06-05 07:22:00,48.0,29.0,-100.00,North,10,1.0,3.0,47,-99.99,,,-99.99,,2013-06-05 14:22:00,
2013-06-05 07:32:00,49.0,29.0,-100.00,North,9,2.0,3.0,45,-99.99,,,-99.99,,2013-06-05 14:32:00,
2013-06-05 07:42:00,52.0,27.0,-100.00,North,349,3.0,4.0,38,-99.99,,,-99.99,,2013-06-05 14:42:00,
2013-06-05 07:52:00,55.0,27.0,-100.00,NNW,348,2.0,3.0,34,-99.99,,,-99.99,,2013-06-05 14:52:00,
2013-06-05 08:02:00,57.0,27.0,-100.00,NNW,339,1.0,3.0,32,-99.99,,,-99.99,,2013-06-05 15:02:00,
2013-06-05 08:12:00,60.0,26.0,-100.00,NNW,342,1.0,2.0,27,-99.99,,,-99.99,,2013-06-05 15:12:00,
2013-06-05 08:22:00,64.0,24.0,-100.00,South,190,1.0,2.0,22,-99.99,,,-99.99,,2013-06-05 15:22:00,
2013-06-05 08:33:00,65.0,30.0,-100.00,South,191,1.0,2.0,27,-99.99,,,-99.99,,2013-06-05 15:33:00,
2013-06-05 08:42:00,66.0,28.0,-100.00,SSE,150,1.0,3.0,24,-99.99,,,-99.99,,2013-06-05 15:42:00,
2013-06-05 08:53:00,67.0,27.0,-100.00,South,170,3.0,6.0,22,-99.99,,,-99.99,,2013-06-05 15:53:00,
2013-06-05 09:03:00,69.0,27.0,-100.00,South,172,5.0,9.0,21,-99.99,,,-99.99,,2013-06-05 16:03:00,
2013-06-05 09:12:00,70.0,28.0,-100.00,SSW,201,6.0,10.0,21,-99.99,,,-99.99,,2013-06-05 16:12:00,
2013-06-05 09:22:00,71.0,30.0,-100.00,SSW,199,6.0,10.0,22,-99.99,,,-99.99,,2013-06-05 16:22:00,
2013-06-05 09:32:00,72.0,31.0,-100.00,South,188,6.0,10.0,22,-99.99,,,-99.99,,2013-06-05 16:32:00,
2013-06-05 09:42:00,73.0,33.0,-100.00,SSW,192,6.0,10.0,23,-99.99,,,-99.99,,2013-06-05 16:42:00,
2013-06-05 09:53:00,73.0,35.0,-100.00,SSE,165,6.0,10.0,25,-99.99,,,-99.99,,2013-06-05 16:53:00,
2013-06-05 10:02:00,73.0,35.0,-100.00,SSE,166,6.0,10.0,25,-99.99,,,-99.99,,2013-06-05 17:02:00,
2013-06-05 10:12:00,74.0,36.0,-100.00,South,170,6.0,10.0,25,-99.99,,,-99.99,,2013-06-05 17:12:00,
2013-06-05 10:22:00,75.0,37.0,-100.00,SSE,164,5.0,11.0,25,-99.99,,,-99.99,,2013-06-05 17:22:00,
2013-06-05 10:32:00,75.0,36.0,-100.00,South,174,7.0,10.0,24,-99.99,,,-99.99,,2013-06-05 17:32:00,
2013-06-05 10:42:00,75.0,35.0,-100.00,SSE,158,6.0,12.0,23,-99.99,,,-99.99,,2013-06-05 17:42:00,
2013-06-05 10:52:00,76.0,33.0,-100.00,South,178,7.0,13.0,21,-99.99,,,-99.99,,2013-06-05 17:52:00,
2013-06-05 11:02:00,77.0,34.0,-100.00,SSW,194,5.0,11.0,21,-99.99,,,-99.99,,2013-06-05 18:02:00,
2013-06-05 11:12:00,77.0,34.0,-100.00,SSW,208,5.0,11.0,21,-99.99,,,-99.99,,2013-06-05 18:12:00,
2013-06-05 11:22:00,77.0,34.0,-100.00,SW,221,6.0,12.0,21,-99.99,,,-99.99,,2013-06-05 18:22:00,
2013-06-05 11:32:00,78.0,35.0,-100.00,SSW,208,6.0,12.0,21,-99.99,,,-99.99,,2013-06-05 18:32:00,
2013-06-05 11:42:00,78.0,35.0,-100.00,SSW,213,8.0,13.0,21,-99.99,,,-99.99,,2013-06-05 18:42:00,
2013-06-05 11:52:00,78.0,35.0,-100.00,SSW,213,8.0,13.0,21,-99.99,,,-99.99,,2013-06-05 18:52:00,
2013-06-05 12:02:00,77.0,33.0,-100.00,SW,214,10.0,15.0,20,-99.99,,,-99.99,,2013-06-05 19:02:00,
2013-06-05 12:12:00,77.0,32.0,-100.00,SSW,207,9.0,15.0,19,-99.99,,,-99.99,,2013-06-05 19:12:00,
2013-06-05 12:22:00,78.0,34.0,-100.00,SSW,198,8.0,16.0,20,-99.99,,,-99.99,,2013-06-05 19:22:00,
2013-06-05 12:32:00,78.0,36.0,-100.00,SSW,193,9.0,15.0,22,-99.99,,,-99.99,,2013-06-05 19:32:00,
2013-06-05 12:42:00,79.0,38.0,-100.00,SSW,193,9.0,14.0,23,-99.99,,,-99.99,,2013-06-05 19:42:00,
2013-06-05 12:52:00,79.0,41.0,-100.00,SSW,196,9.0,15.0,26,-99.99,,,-99.99,,2013-06-05 19:52:00,
2013-06-05 13:02:00,79.0,42.0,-100.00,SSW,200,9.0,15.0,27,-99.99,,,-99.99,,2013-06-05 20:02:00,
2013-06-05 13:12:00,79.0,43.0,-100.00,South,180,11.0,16.0,28,-99.99,,,-99.99,,2013-06-05 20:12:00,
2013-06-05 13:22:00,79.0,42.0,-100.00,South,181,9.0,16.0,27,-99.99,,,-99.99,,2013-06-05 20:22:00,
2013-06-05 13:32:00,79.0,42.0,-100.00,South,188,11.0,17.0,27,-99.99,,,-99.99,,2013-06-05 20:32:00,
2013-06-05 13:42:00,80.0,44.0,-100.00,South,188,10.0,19.0,28,-99.99,,,-99.99,,2013-06-05 20:42:00,
2013-06-05 13:52:00,81.0,45.0,-100.00,South,178,12.0,20.0,28,-99.99,,,-99.99,,2013-06-05 20:52:00,
2013-06-05 14:02:00,81.0,45.0,-100.00,South,184,10.0,21.0,28,-99.99,,,-99.99,,2013-06-05 21:02:00,
2013-06-05 14:12:00,81.0,45.0,-100.00,South,185,11.0,22.0,28,-99.99,,,-99.99,,2013-06-05 21:12:00,
2013-06-05 14:22:00,81.0,44.0,-100.00,South,182,10.0,24.0,27,-99.99,,,-99.99,,2013-06-05 21:22:00,
2013-06-05 14:33:00,81.0,45.0,-100.00,South,183,12.0,22.0,28,-99.99,,,-99.99,,2013-06-05 21:33:00,
2013-06-05 14:43:00,82.0,45.0,-100.00,SSW,195,8.0,18.0,27,-99.99,,,-99.99,,2013-06-05 21:43:00,
2013-06-05 14:53:00,83.0,45.0,-100.00,South,188,9.0,20.0,26,-99.99,,,-99.99,,2013-06-05 21:53:00,
2013-06-05 15:02:00,83.0,45.0,-100.00,South,187,12.0,24.0,26,-99.99,,,-99.99,,2013-06-05 22:02:00,
2013-06-05 15:12:00,82.0,44.0,-100.00,South,188,11.0,21.0,26,-99.99,,,-99.99,,2013-06-05 22:12:00,
2013-06-05 15:22:00,82.0,44.0,-100.00,South,180,12.0,21.0,26,-99.99,,,-99.99,,2013-06-05 22:22:00,
2013-06-05 15:32:00,82.0,43.0,-100.00,South,181,11.0,23.0,25,-99.99,,,-99.99,,2013-06-05 22:32:00,
2013-06-05 15:42:00,82.0,44.0,-100.00,South,173,11.0,22.0,26,-99.99,,,-99.99,,2013-06-05 22:42:00,
2013-06-05 15:52:00,82.0,43.0,-100.00,South,184,12.0,23.0,25,-99.99,,,-99.99,,2013-06-05 22:52:00,
2013-06-05 16:02:00,83.0,44.0,-100.00,South,190,9.0,18.0,25,-99.99,,,-99.99,,2013-06-05 23:02:00,
2013-06-05 16:12:00,83.0,44.0,-100.00,South,184,10.0,22.0,25,-99.99,,,-99.99,,2013-06-05 23:12:00,
2013-06-05 16:21:00,83.0,44.0,-100.00,SSW,192,10.0,20.0,25,-99.99,,,-99.99,,2013-06-05 23:21:00,
2013-06-05 16:32:00,82.0,45.0,-100.00,South,191,12.0,24.0,27,-99.99,,,-99.99,,2013-06-05 23:32:00,
2013-06-05 16:42:00,81.0,45.0,-100.00,SSW,194,12.0,23.0,28,-99.99,,,-99.99,,2013-06-05 23:42:00,
2013-06-05 16:52:00,81.0,45.0,-100.00,SSW,194,12.0,23.0,28,-99.99,,,-99.99,,2013-06-05 23:52:00,
2013-06-05 17:02:00,81.0,46.0,-100.00,SSW,207,7.0,19.0,29,-99.99,,,-99.99,,2013-06-06 00:02:00,
2013-06-05 17:12:00,81.0,46.0,-100.00,SW,234,7.0,16.0,29,-99.99,,,-99.99,,2013-06-06 00:12:00,
2013-06-05 17:22:00,81.0,47.0,-100.00,SSW,200,9.0,19.0,31,-99.99,,,-99.99,,2013-06-06 00:22:00,
2013-06-05 17:32:00,79.0,48.0,-100.00,South,189,10.0,20.0,34,-99.99,,,-99.99,,2013-06-06 00:32:00,
2013-06-05 17:42:00,78.0,49.0,-100.00,South,182,12.0,22.0,36,-99.99,,,-99.99,,2013-06-06 00:42:00,
2013-06-05 17:51:00,78.0,49.0,-100.00,South,182,12.0,22.0,36,-99.99,,,-99.99,,2013-06-06 00:51:00,
2013-06-05 18:02:00,78.0,50.0,-100.00,SSW,194,9.0,21.0,37,-99.99,,,-99.99,,2013-06-06 01:02:00,
2013-06-05 18:12:00,77.0,49.0,-100.00,South,186,10.0,22.0,37,-99.99,,,-99.99,,2013-06-06 01:12:00,
2013-06-05 18:21:00,77.0,49.0,-100.00,SSW,201,8.0,15.0,37,-99.99,,,-99.99,,2013-06-06 01:21:00,
2013-06-05 18:32:00,77.0,50.0,-100.00,SSW,210,6.0,14.0,39,-99.99,,,-99.99,,2013-06-06 01:32:00,
2013-06-05 18:42:00,76.0,51.0,-100.00,SSW,193,9.0,17.0,41,-99.99,,,-99.99,,2013-06-06 01:42:00,
2013-06-05 18:52:00,76.0,51.0,-100.00,SSW,193,9.0,17.0,41,-99.99,,,-99.99,,2013-06-06 01:52:00,
2013-06-05 19:01:00,75.0,51.0,-100.00,SSW,198,9.0,16.0,43,-99.99,,,-99.99,,2013-06-06 02:01:00,
2013-06-05 19:12:00,73.0,52.0,-100.00,SSW,199,10.0,17.0,47,-99.99,,,-99.99,,2013-06-06 02:12:00,
2013-06-05 19:22:00,72.0,52.0,-100.00,SW,217,9.0,14.0,50,-99.99,,,-99.99,,2013-06-06 02:22:00,
2013-06-05 19:32:00,71.0,52.0,-100.00,SW,227,9.0,16.0,51,-99.99,,,-99.99,,2013-06-06 02:32:00,
2013-06-05 19:42:00,71.0,52.0,-100.00,SW,227,9.0,16.0,51,-99.99,,,-99.99,,2013-06-06 02:42:00,
2013-06-05 19:51:00,71.0,52.0,-100.00,SW,227,9.0,16.0,51,-99.99,,,-99.99,,2013-06-06 02:51:00,
2013-06-05 20:02:00,69.0,52.0,-100.00,SSE,158,5.0,9.0,55,-99.99,,,-99.99,,2013-06-06 03:02:00,
2013-06-05 20:12:00,69.0,53.0,-100.00,SSE,153,7.0,10.0,56,-99.99,,,-99.99,,2013-06-06 03:12:00,
2013-06-05 20:22:00,68.0,52.0,-100.00,SSE,166,7.0,10.0,56,-99.99,,,-99.99,,2013-06-06 03:22:00,
2013-06-05 20:33:00,67.0,52.0,-100.00,SSE,164,8.0,11.0,59,-99.99,,,-99.99,,2013-06-06 03:33:00,
2013-06-05 20:43:00,66.0,52.0,-100.00,SSE,160,7.0,11.0,61,-99.99,,,-99.99,,2013-06-06 03:43:00,
2013-06-05 20:52:00,66.0,52.0,-100.00,SE,131,3.0,6.0,60,-99.99,,,-99.99,,2013-06-06 03:52:00,
2013-06-05 21:02:00,65.0,52.0,-100.00,South,178,1.0,2.0,62,-99.99,,,-99.99,,2013-06-06 04:02:00,
2013-06-05 21:13:00,64.0,52.0,-100.00,SSW,194,1.0,3.0,64,-99.99,,,-99.99,,2013-06-06 04:13:00,
2013-06-05 21:22:00,61.0,50.0,-100.00,SSW,202,1.0,3.0,66,-99.99,,,-99.99,,2013-06-06 04:22:00,
2013-06-05 21:33:00,59.0,49.0,-100.00,SSE,166,1.0,2.0,70,-99.99,,,-99.99,,2013-06-06 04:33:00,
2013-06-05 21:42:00,58.0,49.0,-100.00,NNE,20,1.0,1.0,72,-99.99,,,-99.99,,2013-06-06 04:42:00,
2013-06-05 21:52:00,58.0,49.0,-100.00,NNE,20,1.0,1.0,72,-99.99,,,-99.99,,2013-06-06 04:52:00,
2013-06-05 22:02:00,58.0,49.0,-100.00,NW,318,1.0,1.0,72,-99.99,,,-99.99,,2013-06-06 05:02:00,
2013-06-05 22:12:00,58.0,49.0,-100.00,NNW,331,1.0,2.0,72,-99.99,,,-99.99,,2013-06-06 05:12:00,
2013-06-05 22:22:00,57.0,48.0,-100.00,NNE,19,1.0,2.0,71,-99.99,,,-99.99,,2013-06-06 05:22:00,
2013-06-05 22:32:00,54.0,46.0,-100.00,NW,321,1.0,2.0,75,-99.99,,,-99.99,,2013-06-06 05:32:00,
2013-06-05 22:42:00,55.0,48.0,-100.00,NNW,340,1.0,2.0,77,-99.99,,,-99.99,,2013-06-06 05:42:00,
2013-06-05 22:52:00,55.0,47.0,-100.00,NNW,331,2.0,3.0,75,-99.99,,,-99.99,,2013-06-06 05:52:00,
2013-06-05 23:02:00,56.0,48.0,-100.00,NNW,348,1.0,2.0,74,-99.99,,,-99.99,,2013-06-06 06:02:00,
2013-06-05 23:12:00,53.0,45.0,-100.00,SSW,208,1.0,1.0,73,-99.99,,,-99.99,,2013-06-06 06:12:00,
2013-06-05 23:22:00,51.0,45.0,-100.00,South,184,1.0,2.0,80,-99.99,,,-99.99,,2013-06-06 06:22:00,
2013-06-05 23:32:00,50.0,45.0,-100.00,SW,225,0.0,1.0,83,-99.99,,,-99.99,,2013-06-06 06:32:00,
2013-06-05 23:42:00,50.0,45.0,-100.00,WNW,301,0.0,1.0,84,-99.99,,,-99.99,,2013-06-06 06:42:00,
2013-06-05 23:52:00,50.0,45.0,-100.00,North,3,1.0,3.0,83,-99.99,,,-99.99,,2013-06-06 06:52:00,